K0KDS Weather Reports


Display with metric or nautical units.
time (UTC)temp
F
wind
direction
speed
MPH
gust
MPH
rain 1hr
in
rain 24hr
in
rain mn
in
humidity
%
barometer
mb
20260504160225 76 216 6.0 11.0 0.00 0.00 0.00 42 998.7
20260504150225 70 261 0.0 10.0 0.00 0.00 0.00 50 999.3
20260504140226 64 271 4.0 11.0 0.00 0.00 0.00 52 999.6
20260504130226 59 216 0.0 0.0 0.00 0.00 0.00 57 999.8
20260504120225 52 238 0.0 0.0 0.00 0.00 0.00 67 999.9
20260504110225 50 209 0.0 0.0 0.00 0.00 0.00 68 1000.3
20260504100226 52 231 0.0 0.0 0.00 0.00 0.00 62 1001.0
20260504081722 55 212 0.0 0.0 0.00 0.00 0.00 54 1001.8
20260504080222 55 228 0.0 0.0 0.00 0.00 0.00 54 1002.1
20260504070222 57 215 0.0 0.0 0.00 0.00 0.00 49 1003.1
20260504060222 56 209 0.0 0.0 0.00 0.00 0.00 50 1004.0
20260504050222 52 249 0.0 0.0 0.00 0.00 0.00 59 1004.3
20260504044722 53 249 0.0 0.0 0.00 0.00 0.00 55 1004.3
20260504043222 54 249 0.0 0.0 0.00 0.00 0.00 53 1004.6
20260504041722 55 249 0.0 0.0 0.00 0.00 0.00 52 1004.6
20260504040222 58 249 0.0 0.0 0.00 0.00 0.00 48 1004.8
20260504034722 60 249 0.0 0.0 0.00 0.00 0.00 41 1005.0
20260504033222 62 240 0.0 0.0 0.00 0.00 0.00 39 1005.3
20260504031722 62 251 0.0 0.0 0.00 0.00 0.00 39 1005.5
20260504030222 62 255 0.0 0.0 0.00 0.00 0.00 38 1005.6
20260504024722 61 248 0.0 0.0 0.00 0.00 0.00 39 1005.5
20260504023222 62 252 0.0 0.0 0.00 0.00 0.00 38 1005.4
20260504021722 63 251 0.0 0.0 0.00 0.00 0.00 36 1005.4
20260504020222 63 262 0.0 0.0 0.00 0.00 0.00 35 1005.3
20260504014722 64 245 0.0 0.0 0.00 0.00 0.00 33 1005.3
20260504013222 66 263 0.0 0.0 0.00 0.00 0.00 31 1005.2
20260504011722 67 255 0.0 0.0 0.00 0.00 0.00 30 1005.2
20260504010222 69 265 0.0 0.0 0.00 0.00 0.00 27 1005.2
20260504004722 71 250 0.0 0.0 0.00 0.00 0.00 25 1005.2
20260504003222 72 257 3.0 5.0 0.00 0.00 0.00 24 1005.2
20260504001722 73 260 0.0 5.0 0.00 0.00 0.00 23 1005.2
20260504000222 73 291 3.0 7.0 0.00 0.00 0.00 22 1005.3
20260503234722 74 319 0.0 8.0 0.00 0.00 0.00 22 1005.3
20260503233222 74 305 4.0 7.0 0.00 0.00 0.00 22 1005.5
20260503231722 74 262 0.0 6.0 0.00 0.00 0.00 21 1005.5
20260503230222 74 321 4.0 10.0 0.00 0.00 0.00 22 1005.5
20260503224722 74 333 0.0 13.0 0.00 0.00 0.00 25 1005.8
20260503223222 73 302 6.0 13.0 0.00 0.00 0.00 21 1005.9
20260503221722 73 309 6.0 14.0 0.00 0.00 0.00 23 1005.8
20260503220222 73 290 5.0 13.0 0.00 0.00 0.00 24 1005.8
20260503214722 73 360 5.0 11.0 0.00 0.00 0.00 25 1005.8
20260503213222 74 8 2.0 12.0 0.00 0.00 0.00 25 1005.8
20260503211722 75 315 7.0 10.0 0.00 0.00 0.00 25 1005.6
20260503210222 75 332 3.0 13.0 0.00 0.00 0.00 26 1005.8
20260503204722 75 305 0.0 12.0 0.00 0.00 0.00 27 1005.8
20260503203222 75 285 4.0 11.0 0.00 0.00 0.00 28 1006.0
20260503201722 74 307 6.0 11.0 0.00 0.00 0.00 27 1006.0
20260503200222 74 300 7.0 15.0 0.00 0.00 0.00 27 1006.2
20260503194722 74 321 11.0 12.0 0.00 0.00 0.00 29 1006.4
20260503193222 74 299 1.0 16.0 0.00 0.00 0.00 29 1006.3
20260503191722 74 299 3.0 16.0 0.00 0.00 0.00 28 1006.4
20260503190222 73 317 4.0 14.0 0.00 0.00 0.00 28 1006.5
20260503184722 72 285 5.0 15.0 0.00 0.00 0.00 30 1006.6
20260503183222 73 275 2.0 14.0 0.00 0.00 0.00 32 1006.6
20260503181722 73 332 1.0 18.0 0.00 0.00 0.00 31 1006.8
20260503180222 72 289 9.0 13.0 0.00 0.00 0.00 28 1006.9
20260503174722 72 332 7.0 19.0 0.00 0.00 0.00 32 1006.9
20260503173222 70 271 3.0 12.0 0.00 0.00 0.00 34 1006.6
20260503171722 69 328 0.0 16.0 0.00 0.00 0.00 32 1006.4
20260503170222 71 281 2.0 18.0 0.00 0.00 0.00 34 1007.1